Location: Asheville, NC
(35.6000°N, 82.5500°W)
Time: 18:41:58
(UTC-04:00)

XW-2D - Pass Details

Date: 09 January 2018
Orbit: 511 x 529 km, 97.5° (Epoch: 23 April)

Event Time Altitude Azimuth Distance (km) Brightness Sun altitude
Rises 06:15:57 0° 17° (NNE) 2,649 ? -16.8°
Reaches altitude 10° 06:18:06 10° 22° (NNE) 1,753 ? -16.4°
Maximum altitude 06:21:48 52° 100° (E) 648 ? -15.6°
Drops below altitude 10° 06:25:26 10° 177° (S) 1,730 ? -14.9°
Sets 06:27:33 0° 182° (S) 2,608 ? -14.5°
